San Antonio Stinson, TX

12:48 PM CDT on May 22, 2018 (GMT -0500)
Stinson Municipal

Weather History for KSSF - August, 2014

Change the Weather History Date:

Saturday, August 9, 2014

  Actual Average Record
Temperature  
Mean Temperature 86 °F -  
Max Temperature 100 °F 94 °F 105 °F (2011)
Min Temperature 73 °F 72 °F 72 °F (2004)
Cooling Degree Days 22    
Growing Degree Days 36 (Base 50)    
Moisture  
Dew Point 69 °F    
Average Humidity 62    
Maximum Humidity 87    
Minimum Humidity 26    
Precipitation  
Precipitation 0.00 in - - ()
Sea Level Pressure  
Sea Level Pressure 29.94 in    
Wind  
Wind Speed 5 mph (SSE)    
Max Wind Speed 14 mph    
Max Gust Speed -    
Visibility 10 miles    
Events      
Averages and records for this station are not official NWS values.
T = Trace of Precipitation, MM = Missing Value Source: NWS Daily Summary

Daily Weather History Graph

Daily Weather History Graph

Search for Another Location

Airport or City:

Astronomy

Aug. 09, 2014 Rise Set
Actual Time 6:58 AM CDT 8:19 PM CDT
Civil Twilight 6:33 AM CDT 8:44 PM CDT
Nautical Twilight 6:03 AM CDT 9:14 PM CDT
Astronomical Twilight 5:32 AM CDT 9:46 PM CDT
Moon 7:24 PM CDT (8/9) 5:41 AM CDT (8/9)
Length of Visible Light 14h 11m
Length of Day
13h 20m
Waxing Gibbous, 98% of the Moon is Illuminated
Aug 9
Waxing Gibbous
Aug 10
Full
Aug 17
Last Quarter
Aug 25
New
Sep 2
First Quarter

Hourly Weather History & Observations

Time (CDT) Temp. Heat Index Dew Point Humidity Pressure Visibility Wind Dir Wind Speed Gust Speed Precip Events Conditions
12:53 AM 81.0 °F 85.2 °F 72.0 °F 74% 29.94 in 10.0 mi South 5.8 mph - N/A   Clear
1:53 AM 80.1 °F 83.6 °F 71.1 °F 74% 29.94 in 10.0 mi SSE 3.5 mph - N/A   Clear
2:53 AM 78.1 °F - 70.0 °F 76% 29.93 in 10.0 mi SSE 3.5 mph - N/A   Clear
3:53 AM 77.0 °F - 70.0 °F 79% 29.92 in 10.0 mi SSE 4.6 mph - N/A   Clear
4:53 AM 77.0 °F - 70.0 °F 79% 29.92 in 10.0 mi Calm Calm - N/A   Partly Cloudy
5:04 AM 75.0 °F - 70.0 °F 84% 29.96 in 10.0 mi Calm Calm - N/A   Partly Cloudy
5:53 AM 75.9 °F - 70.0 °F 82% 29.93 in 10.0 mi Calm Calm - N/A   Clear
6:53 AM 73.9 °F - 70.0 °F 87% 29.95 in 10.0 mi Calm Calm - N/A   Clear
7:53 AM 77.0 °F - 71.1 °F 82% 29.96 in 10.0 mi Calm Calm - N/A   Partly Cloudy
8:42 AM 80.1 °F 83.8 °F 72.0 °F 76% 30.02 in 10.0 mi SSE 3.5 mph - N/A   Mostly Cloudy
8:49 AM 80.6 °F 85.4 °F 73.4 °F 79% 30.02 in 10.0 mi Variable 4.6 mph - N/A   Mostly Cloudy
8:53 AM 80.1 °F 84.2 °F 73.0 °F 79% 29.99 in 10.0 mi South 3.5 mph - N/A   Mostly Cloudy
9:33 AM 81.0 °F 85.8 °F 73.0 °F 77% 30.04 in 10.0 mi SSW 9.2 mph - N/A   Mostly Cloudy
9:53 AM 84.9 °F 91.4 °F 73.0 °F 67% 29.99 in 10.0 mi South 9.2 mph - N/A   Mostly Cloudy
10:27 AM 84.9 °F 90.7 °F 72.0 °F 65% 30.04 in 10.0 mi South 6.9 mph - N/A   Mostly Cloudy
10:45 AM 86.0 °F 92.2 °F 72.0 °F 63% 30.04 in 10.0 mi SSE 5.8 mph - N/A   Mostly Cloudy
10:53 AM 84.9 °F 90.7 °F 72.0 °F 65% 30.00 in 10.0 mi SW 6.9 mph - N/A   Mostly Cloudy
12:53 PM 93.9 °F 99.1 °F 69.1 °F 44% 29.96 in 10.0 mi SSE 9.2 mph - N/A   Clear
1:53 PM 95.0 °F 99.5 °F 68.0 °F 41% 29.93 in 10.0 mi SSW 8.1 mph - N/A   Partly Cloudy
2:53 PM 97.0 °F 101.0 °F 66.9 °F 37% 29.91 in 10.0 mi SSW 8.1 mph - N/A   Scattered Clouds
3:53 PM 98.1 °F 99.6 °F 63.0 °F 31% 29.89 in 10.0 mi SW 9.2 mph - N/A   Partly Cloudy
4:53 PM 99.0 °F 99.5 °F 61.0 °F 28% 29.86 in 10.0 mi SE 8.1 mph - N/A   Partly Cloudy
5:53 PM 100.0 °F 100.2 °F 59.0 °F 26% 29.84 in 10.0 mi SE 12.7 mph - N/A   Clear
6:53 PM 98.1 °F 97.2 °F 57.9 °F 26% 29.83 in 10.0 mi SSE 9.2 mph - N/A   Clear
7:53 PM 93.9 °F 96.1 °F 64.9 °F 38% 29.85 in 10.0 mi SE 13.8 mph - N/A   Clear
8:53 PM 91.0 °F 91.9 °F 63.0 °F 39% 29.87 in 10.0 mi SSE 6.9 mph - N/A   Clear
10:53 PM 86.0 °F 91.5 °F 71.1 °F 61% 29.94 in 10.0 mi SSE 9.2 mph - N/A   Clear
11:53 PM 84.0 °F 90.2 °F 73.0 °F 69% 29.96 in 10.0 mi SSE 10.4 mph - N/A   Clear